QPF
0.00 0.00 0.00 0.00 0.00 0.00 0.00 0.00 0.00 0.00 0.00 0.00 0.00 0.00 0.00 0.00 0.00 0.00 0.00 0.00 0.00 0.00 0.00 0.02 0.08 0.13 0.16 0.47 0.67 0.44 0.20 0.09 0.03 0.04 0.05 0.03 0.01 0.00 0.00 0.00 0.00 0.01 0.00 0.01
0.00 0.00 0.00 0.00 0.00 0.00 0.00 0.00 0.00 0.00 0.00 0.00 0.00 0.00 0.00 0.00 0.00 0.00 0.00 0.00 0.00 0.00 0.00 0.01 0.01 0.02 0.05 0.13 0.21 0.22 0.20 0.19 0.08 0.06 0.07 0.06 0.04 0.01 0.02 0.05 0.10 0.07 0.02 0.01
0.00 0.00 0.00 0.00 0.00 0.00 0.00 0.00 0.00 0.00 0.00 0.00 0.00 0.00 0.00 0.00 0.00 0.00 0.00 0.00 0.00 0.00 0.00 0.00 0.00 0.00 0.01 0.04 0.09 0.13 0.13 0.15 0.08 0.04 0.04 0.07 0.10 0.13 0.18 0.25 0.28 0.20 0.09 0.02
0.00 0.00 0.00 0.00 0.00 0.00 0.00 0.00 0.00 0.00 0.00 0.00 0.00 0.00 0.00 0.00 0.00 0.00 0.00 0.00 0.00 0.00 0.00 0.00 0.00 0.00 0.00 0.01 0.02 0.03 0.06 0.08 0.08 0.06 0.06 0.11 0.18 0.23 0.24 0.18 0.15 0.09 0.03 0.01
0.00 0.00 0.00 0.00 0.00 0.00 0.00 0.00 0.00 0.00 0.00 0.00 0.00 0.00 0.00 0.00 0.00 0.00 0.00 0.00 0.00 0.00 0.00 0.00 0.00 0.00 0.00 0.00 0.01 0.02 0.02 0.03 0.03 0.04 0.06 0.10 0.09 0.07 0.04 0.03 0.01 0.01 0.00 0.00
0.00 0.00 0.00 0.00 0.00 0.00 0.00 0.00 0.00 0.00 0.00 0.00 0.00 0.00 0.00 0.00 0.00 0.00 0.00 0.00 0.00 0.00 0.00 0.00 0.00 0.00 0.00 0.00 0.01 0.01 0.01 0.01 0.01 0.01 0.01 0.01 0.01 0.01 0.00 0.00 0.00 0.00 0.00 0.00
0.00 0.00 0.00 0.00 0.00 0.00 0.00 0.00 0.00 0.00 0.00 0.00 0.00 0.00 0.00 0.00 0.00 0.00 0.00 0.00 0.00 0.00 0.00 0.00 0.00 0.00 0.00 0.00 0.00 0.00 0.00 0.00 0.00 0.00 0.00 0.00 0.00 0.00 0.00 0.00 0.00 0.00 0.00 0.00
0.00 0.00 0.00 0.00 0.00 0.00 0.00 0.00 0.00 0.00 0.00 0.00 0.00 0.00 0.00 0.00 0.00 0.00 0.00 0.00 0.00 0.00 0.00 0.00 0.00 0.00 0.00 0.00 0.00 0.00 0.00 0.00 0.00 0.00 0.00 0.00 0.00 0.00 0.00 0.00 0.00 0.00 0.00 0.00
0.00 0.00 0.00 0.00 0.00 0.00 0.00 0.00 0.00 0.00 0.00 0.00 0.00 0.00 0.00 0.00 0.00 0.00 0.00 0.00 0.00 0.00 0.00 0.00 0.00 0.00 0.00 0.00 0.00 0.00 0.00 0.00 0.00 0.00 0.00 0.00 0.00 0.00 0.00 0.00 0.00 0.00 0.00 0.00
0.00 0.00 0.00 0.00 0.00 0.00 0.00 0.00 0.00 0.00 0.00 0.00 0.00 0.00 0.00 0.00 0.00 0.00 0.00 0.00 0.00 0.00 0.00 0.00 0.00 0.00 0.00 0.00 0.00 0.00 0.00 0.00 0.00 0.00 0.00 0.00 0.00 0.00 0.00 0.00 0.00 0.00 0.01 0.01
0.00 0.00 0.00 0.00 0.00 0.00 0.00 0.00 0.00 0.00 0.00 0.00 0.00 0.00 0.00 0.00 0.00 0.00 0.00 0.00 0.00 0.00 0.00 0.00 0.00 0.00 0.00 0.00 0.00 0.00 0.00 0.00 0.00 0.00 0.00 0.00 0.00 0.00 0.00 0.00 0.01 0.01 0.01 0.02
0.00 0.00 0.00 0.00 0.00 0.00 0.00 0.00 0.00 0.00 0.00 0.00 0.00 0.00 0.00 0.00 0.01 0.02 0.01 0.00 0.00 0.00 0.00 0.00 0.00 0.00 0.00 0.00 0.00 0.00 0.00 0.00 0.00 0.00 0.00 0.00 0.00 0.01 0.01 0.01 0.01 0.02 0.02 0.02
0.00 0.00 0.00 0.00 0.00 0.00 0.00 0.00 0.00 0.00 0.00 0.00 0.00 0.00 0.00 0.00 0.01 0.03 0.02 0.00 0.00 0.00 0.00 0.00 0.00 0.00 0.00 0.00 0.00 0.00 0.00 0.00 0.00 0.00 0.00 0.00 0.00 0.01 0.01 0.02 0.02 0.02 0.03 0.03
0.00 0.00 0.00 0.00 0.00 0.00 0.00 0.00 0.00 0.00 0.00 0.00 0.00 0.01 0.01 0.01 0.01 0.01 0.00 0.00 0.00 0.00 0.00 0.00 0.00 0.00 0.00 0.00 0.00 0.00 0.00 0.00 0.00 0.00 0.00 0.00 0.01 0.01 0.01 0.02 0.03 0.03 0.03 0.03
0.00 0.00 0.00 0.00 0.00 0.00 0.00 0.00 0.00 0.00 0.00 0.00 0.00 0.01 0.01 0.01 0.02 0.00 0.00 0.00 0.00 0.00 0.00 0.00 0.00 0.00 0.00 0.00 0.00 0.00 0.00 0.00 0.00 0.00 0.01 0.01 0.01 0.01 0.02 0.03 0.03 0.02 0.01 0.01
0.00 0.00 0.00 0.00 0.00 0.00 0.00 0.00 0.00 0.00 0.00 0.00 0.00 0.01 0.00 0.00 0.01 0.00 0.00 0.00 0.00 0.00 0.00 0.00 0.00 0.00 0.00 0.00 0.00 0.00 0.00 0.00 0.00 0.01 0.01 0.01 0.01 0.01 0.02 0.02 0.01 0.01 0.00 0.00
0.00 0.00 0.00 0.00 0.00 0.00 0.00 0.00 0.00 0.00 0.00 0.00 0.01 0.01 0.00 0.00 0.00 0.00 0.00 0.00 0.00 0.00 0.00 0.00 0.00 0.00 0.00 0.00 0.00 0.00 0.00 0.00 0.00 0.01 0.01 0.01 0.00 0.01 0.01 0.00 0.00 0.00 0.01 0.01
0.00 0.01 0.01 0.01 0.01 0.01 0.00 0.00 0.00 0.00 0.00 0.00 0.00 0.00 0.00 0.00 0.00 0.00 0.00 0.00 0.00 0.00 0.00 0.00 0.00 0.00 0.00 0.00 0.00 0.00 0.00 0.00 0.00 0.00 0.00 0.00 0.00 0.00 0.00 0.00 0.01 0.01 0.01 0.01
0.00 0.02 0.04 0.03 0.04 0.02 0.01 0.00 0.00 0.00 0.00 0.00 0.00 0.00 0.00 0.00 0.00 0.00 0.00 0.00 0.00 0.00 0.00 0.00 0.00 0.00 0.00 0.00 0.00 0.00 0.00 0.00 0.00 0.00 0.00 0.00 0.00 0.00 0.00 0.01 0.01 0.01 0.01 0.01
0.00 0.01 0.05 0.08 0.09 0.07 0.04 0.01 0.00 0.00 0.00 0.00 0.00 0.00 0.00 0.00 0.00 0.00 0.00 0.00 0.00 0.00 0.00 0.00 0.00 0.00 0.00 0.00 0.00 0.00 0.00 0.00 0.00 0.00 0.00 0.00 0.00 0.00 0.00 0.01 0.01 0.01 0.01 0.01
0.02 0.02 0.08 0.14 0.14 0.08 0.03 0.01 0.01 0.01 0.01 0.00 0.00 0.00 0.00 0.00 0.00 0.00 0.00 0.00 0.00 0.00 0.00 0.00 0.00 0.00 0.00 0.00 0.00 0.00 0.00 0.00 0.00 0.00 0.00 0.00 0.00 0.00 0.00 0.00 0.01 0.01 0.00 0.00
0.11 0.09 0.09 0.11 0.13 0.13 0.02 0.00 0.01 0.01 0.00 0.00 0.00 0.00 0.00 0.00 0.00 0.00 0.00 0.00 0.00 0.00 0.00 0.00 0.00 0.00 0.00 0.00 0.00 0.00 0.00 0.00 0.00 0.00 0.00 0.00 0.00 0.00 0.00 0.00 0.00 0.00 0.00 0.00
0.29 0.18 0.11 0.10 0.10 0.06 0.02 0.00 0.00 0.00 0.00 0.00 0.00 0.00 0.00 0.00 0.00 0.00 0.00 0.00 0.00 0.00 0.00 0.00 0.00 0.00 0.00 0.00 0.00 0.00 0.00 0.00 0.00 0.00 0.00 0.00 0.00 0.00 0.00 0.00 0.00 0.00 0.00 0.00
0.27 0.17 0.10 0.07 0.06 0.04 0.02 0.01 0.00 0.00 0.00 0.00 0.00 0.00 0.00 0.00 0.00 0.00 0.00 0.00 0.00 0.00 0.00 0.00 0.00 0.00 0.00 0.00 0.00 0.00 0.00 0.00 0.00 0.00 0.00 0.00 0.00 0.00 0.00 0.00 0.00 0.00 0.00 0.00
0.10 0.10 0.07 0.05 0.03 0.03 0.02 0.00 0.00 0.00 0.00 0.00 0.00 0.00 0.00 0.00 0.00 0.00 0.00 0.00 0.00 0.00 0.00 0.00 0.00 0.00 0.00 0.00 0.00 0.00 0.00 0.00 0.00 0.00 0.00 0.00 0.00 0.00 0.00 0.00 0.00 0.00 0.00 0.00
0.02 0.02 0.03 0.05 0.01 0.01 0.00 0.00 0.00 0.00 0.00 0.00 0.00 0.00 0.00 0.00 0.00 0.00 0.00 0.00 0.00 0.00 0.00 0.00 0.00 0.00 0.00 0.00 0.00 0.00 0.00 0.00 0.00 0.00 0.00 0.00 0.00 0.00 0.00 0.00 0.00 0.00 0.00 0.00
MSLP
1008.84 1009.23 1009.41 1009.40 1009.25 1009.04 1008.83 1008.68 1008.60 1008.59 1008.61 1008.63 1008.61 1008.54 1008.43 1008.31 1008.22 1008.21 1008.30 1008.54 1008.92 1009.42 1010.02 1010.69 1011.39 1012.09 1012.76 1013.37 1013.92 1014.39 1014.77 1015.04 1015.20 1015.25 1015.22 1015.12 1014.99 1014.85 1014.74 1014.68 1014.68 1014.74 1014.86 1014.99
1009.11 1009.36 1009.39 1009.25 1009.02 1008.77 1008.58 1008.49 1008.51 1008.60 1008.74 1008.86 1008.94 1008.96 1008.92 1008.86 1008.84 1008.89 1009.06 1009.37 1009.82 1010.38 1011.03 1011.71 1012.39 1013.04 1013.64 1014.17 1014.63 1015.03 1015.34 1015.58 1015.73 1015.79 1015.77 1015.68 1015.54 1015.38 1015.23 1015.11 1015.05 1015.04 1015.10 1015.19
1009.12 1009.24 1009.16 1008.93 1008.66 1008.42 1008.29 1008.29 1008.43 1008.66 1008.92 1009.16 1009.33 1009.42 1009.44 1009.43 1009.45 1009.56 1009.79 1010.16 1010.67 1011.28 1011.95 1012.63 1013.28 1013.88 1014.39 1014.84 1015.22 1015.54 1015.80 1016.02 1016.17 1016.26 1016.28 1016.23 1016.11 1015.96 1015.80 1015.64 1015.53 1015.47 1015.45 1015.49
1008.84 1008.86 1008.70 1008.44 1008.19 1008.01 1007.99 1008.13 1008.41 1008.78 1009.17 1009.51 1009.76 1009.90 1009.96 1009.99 1010.04 1010.18 1010.45 1010.86 1011.41 1012.05 1012.74 1013.42 1014.04 1014.58 1015.02 1015.39 1015.69 1015.95 1016.17 1016.37 1016.55 1016.68 1016.75 1016.76 1016.70 1016.59 1016.43 1016.26 1016.11 1015.99 1015.91 1015.88
1008.29 1008.24 1008.06 1007.82 1007.64 1007.58 1007.70 1008.00 1008.44 1008.96 1009.47 1009.89 1010.20 1010.38 1010.45 1010.48 1010.54 1010.69 1010.98 1011.42 1012.00 1012.67 1013.38 1014.06 1014.66 1015.16 1015.55 1015.85 1016.08 1016.29 1016.48 1016.68 1016.87 1017.05 1017.19 1017.27 1017.28 1017.21 1017.09 1016.92 1016.74 1016.57 1016.43 1016.33
1007.56 1007.48 1007.31 1007.14 1007.07 1007.16 1007.44 1007.92 1008.52 1009.16 1009.77 1010.26 1010.61 1010.79 1010.86 1010.88 1010.93 1011.08 1011.37 1011.83 1012.44 1013.14 1013.87 1014.56 1015.16 1015.64 1015.99 1016.25 1016.44 1016.60 1016.77 1016.97 1017.18 1017.40 1017.60 1017.75 1017.82 1017.81 1017.71 1017.55 1017.35 1017.14 1016.94 1016.77
1006.79 1006.70 1006.58 1006.50 1006.55 1006.80 1007.24 1007.86 1008.60 1009.35 1010.02 1010.56 1010.91 1011.08 1011.13 1011.13 1011.16 1011.31 1011.61 1012.09 1012.72 1013.46 1014.22 1014.94 1015.56 1016.04 1016.39 1016.63 1016.79 1016.93 1017.08 1017.27 1017.49 1017.74 1017.98 1018.17 1018.30 1018.32 1018.25 1018.10 1017.88 1017.63 1017.38 1017.15
1006.13 1006.04 1005.96 1005.98 1006.15 1006.52 1007.10 1007.83 1008.65 1009.46 1010.17 1010.71 1011.05 1011.21 1011.24 1011.22 1011.24 1011.39 1011.71 1012.21 1012.88 1013.65 1014.46 1015.22 1015.87 1016.39 1016.75 1017.00 1017.16 1017.28 1017.42 1017.60 1017.82 1018.07 1018.32 1018.54 1018.68 1018.73 1018.67 1018.52 1018.28 1018.00 1017.71 1017.43
1005.68 1005.60 1005.56 1005.65 1005.91 1006.36 1007.01 1007.80 1008.64 1009.46 1010.16 1010.68 1011.01 1011.15 1011.17 1011.15 1011.18 1011.34 1011.69 1012.23 1012.94 1013.76 1014.62 1015.43 1016.13 1016.68 1017.08 1017.35 1017.53 1017.66 1017.79 1017.95 1018.15 1018.39 1018.62 1018.83 1018.97 1019.01 1018.95 1018.78 1018.53 1018.23 1017.91 1017.59
1005.49 1005.41 1005.41 1005.53 1005.83 1006.31 1006.97 1007.74 1008.56 1009.33 1009.99 1010.47 1010.77 1010.91 1010.94 1010.94 1011.01 1011.23 1011.62 1012.20 1012.96 1013.83 1014.73 1015.59 1016.34 1016.94 1017.39 1017.69 1017.89 1018.04 1018.16 1018.31 1018.49 1018.69 1018.89 1019.06 1019.16 1019.18 1019.09 1018.90 1018.64 1018.32 1017.98 1017.66
1005.57 1005.48 1005.48 1005.61 1005.89 1006.35 1006.94 1007.64 1008.38 1009.07 1009.65 1010.09 1010.38 1010.53 1010.60 1010.67 1010.82 1011.10 1011.56 1012.20 1013.00 1013.91 1014.84 1015.73 1016.52 1017.17 1017.66 1018.01 1018.24 1018.41 1018.54 1018.68 1018.82 1018.97 1019.12 1019.23 1019.28 1019.24 1019.12 1018.91 1018.63 1018.31 1017.97 1017.66
1005.83 1005.73 1005.72 1005.82 1006.05 1006.43 1006.92 1007.50 1008.11 1008.69 1009.20 1009.60 1009.89 1010.09 1010.24 1010.41 1010.67 1011.05 1011.59 1012.30 1013.14 1014.06 1015.01 1015.91 1016.72 1017.39 1017.91 1018.30 1018.57 1018.76 1018.90 1019.02 1019.13 1019.24 1019.32 1019.36 1019.33 1019.24 1019.07 1018.83 1018.54 1018.22 1017.91 1017.62
1006.18 1006.08 1006.05 1006.10 1006.26 1006.52 1006.88 1007.31 1007.78 1008.25 1008.68 1009.06 1009.38 1009.66 1009.93 1010.24 1010.63 1011.13 1011.78 1012.54 1013.41 1014.35 1015.28 1016.17 1016.97 1017.64 1018.17 1018.58 1018.87 1019.08 1019.23 1019.34 1019.42 1019.47 1019.48 1019.44 1019.35 1019.19 1018.97 1018.70 1018.40 1018.10 1017.82 1017.57
1006.58 1006.47 1006.41 1006.40 1006.47 1006.60 1006.82 1007.10 1007.43 1007.79 1008.16 1008.54 1008.92 1009.31 1009.73 1010.20 1010.76 1011.40 1012.15 1012.98 1013.87 1014.79 1015.69 1016.54 1017.29 1017.94 1018.46 1018.86 1019.17 1019.38 1019.53 1019.62 1019.67 1019.66 1019.61 1019.50 1019.33 1019.11 1018.84 1018.54 1018.24 1017.96 1017.71 1017.50
1006.97 1006.86 1006.77 1006.71 1006.68 1006.70 1006.77 1006.91 1007.11 1007.38 1007.72 1008.12 1008.58 1009.10 1009.69 1010.34 1011.07 1011.86 1012.71 1013.60 1014.50 1015.39 1016.24 1017.02 1017.71 1018.29 1018.78 1019.16 1019.45 1019.66 1019.79 1019.86 1019.87 1019.81 1019.69 1019.51 1019.28 1018.99 1018.68 1018.36 1018.05 1017.79 1017.57 1017.40
1007.38 1007.27 1007.16 1007.03 1006.92 1006.82 1006.77 1006.78 1006.89 1007.09 1007.42 1007.85 1008.41 1009.07 1009.82 1010.66 1011.55 1012.48 1013.43 1014.36 1015.26 1016.12 1016.90 1017.59 1018.20 1018.71 1019.13 1019.47 1019.72 1019.91 1020.01 1020.05 1020.01 1019.91 1019.72 1019.48 1019.18 1018.84 1018.49 1018.15 1017.84 1017.59 1017.39 1017.26
1007.85 1007.73 1007.58 1007.41 1007.21 1007.02 1006.87 1006.78 1006.81 1006.97 1007.29 1007.78 1008.43 1009.22 1010.12 1011.12 1012.16 1013.21 1014.23 1015.20 1016.10 1016.90 1017.60 1018.21 1018.72 1019.15 1019.49 1019.77 1019.97 1020.11 1020.18 1020.17 1020.09 1019.92 1019.69 1019.38 1019.03 1018.65 1018.27 1017.91 1017.60 1017.36 1017.18 1017.08
1008.40 1008.26 1008.08 1007.86 1007.60 1007.33 1007.10 1006.94 1006.92 1007.05 1007.38 1007.91 1008.64 1009.53 1010.56 1011.68 1012.83 1013.97 1015.05 1016.03 1016.91 1017.66 1018.29 1018.81 1019.23 1019.56 1019.83 1020.03 1020.17 1020.25 1020.27 1020.21 1020.07 1019.86 1019.57 1019.22 1018.82 1018.41 1018.01 1017.65 1017.34 1017.11 1016.96 1016.88
1009.04 1008.87 1008.65 1008.38 1008.07 1007.75 1007.47 1007.27 1007.21 1007.34 1007.68 1008.24 1009.02 1009.99 1011.10 1012.29 1013.51 1014.69 1015.79 1016.77 1017.62 1018.32 1018.88 1019.31 1019.65 1019.90 1020.08 1020.21 1020.29 1020.31 1020.27 1020.16 1019.97 1019.70 1019.37 1018.98 1018.57 1018.14 1017.74 1017.38 1017.10 1016.89 1016.76 1016.70
1009.72 1009.51 1009.25 1008.94 1008.60 1008.25 1007.95 1007.73 1007.67 1007.80 1008.15 1008.74 1009.55 1010.55 1011.69 1012.91 1014.14 1015.33 1016.41 1017.37 1018.17 1018.82 1019.31 1019.68 1019.95 1020.13 1020.24 1020.31 1020.32 1020.28 1020.18 1020.01 1019.77 1019.47 1019.11 1018.70 1018.28 1017.86 1017.48 1017.15 1016.90 1016.72 1016.63 1016.60
1010.34 1010.09 1009.80 1009.47 1009.12 1008.77 1008.48 1008.28 1008.24 1008.40 1008.77 1009.37 1010.18 1011.18 1012.31 1013.50 1014.71 1015.86 1016.90 1017.81 1018.56 1019.15 1019.59 1019.90 1020.11 1020.23 1020.29 1020.30 1020.25 1020.16 1020.00 1019.79 1019.51 1019.18 1018.80 1018.40 1017.99 1017.60 1017.26 1016.98 1016.78 1016.66 1016.61 1016.62
1010.81 1010.52 1010.21 1009.88 1009.55 1009.24 1009.00 1008.86 1008.87 1009.07 1009.47 1010.08 1010.89 1011.86 1012.94 1014.08 1015.22 1016.29 1017.27 1018.11 1018.80 1019.33 1019.72 1019.99 1020.15 1020.24 1020.25 1020.21 1020.11 1019.97 1019.77 1019.52 1019.21 1018.86 1018.49 1018.10 1017.72 1017.39 1017.11 1016.90 1016.77 1016.72 1016.73 1016.79
1011.06 1010.74 1010.43 1010.13 1009.85 1009.62 1009.46 1009.41 1009.51 1009.77 1010.22 1010.85 1011.64 1012.56 1013.58 1014.64 1015.69 1016.67 1017.56 1018.32 1018.94 1019.42 1019.77 1020.00 1020.12 1020.17 1020.15 1020.07 1019.94 1019.75 1019.52 1019.23 1018.91 1018.56 1018.20 1017.84 1017.52 1017.25 1017.05 1016.92 1016.88 1016.91 1016.99 1017.11
1011.06 1010.75 1010.46 1010.21 1010.02 1009.89 1009.85 1009.92 1010.13 1010.48 1010.98 1011.63 1012.41 1013.30 1014.24 1015.21 1016.16 1017.04 1017.83 1018.51 1019.06 1019.48 1019.78 1019.98 1020.08 1020.09 1020.04 1019.93 1019.77 1019.55 1019.28 1018.98 1018.65 1018.31 1017.98 1017.67 1017.41 1017.22 1017.10 1017.07 1017.12 1017.22 1017.38 1017.55
1010.88 1010.58 1010.34 1010.17 1010.08 1010.08 1010.18 1010.39 1010.72 1011.17 1011.74 1012.43 1013.20 1014.04 1014.92 1015.80 1016.64 1017.43 1018.12 1018.71 1019.19 1019.56 1019.82 1019.98 1020.05 1020.04 1019.97 1019.83 1019.64 1019.39 1019.11 1018.80 1018.47 1018.15 1017.86 1017.61 1017.42 1017.31 1017.28 1017.34 1017.47 1017.65 1017.87 1018.09
1010.61 1010.35 1010.18 1010.11 1010.14 1010.27 1010.51 1010.86 1011.31 1011.86 1012.50 1013.22 1013.99 1014.80 1015.61 1016.41 1017.16 1017.84 1018.45 1018.96 1019.37 1019.68 1019.90 1020.03 1020.08 1020.05 1019.95 1019.79 1019.57 1019.32 1019.02 1018.71 1018.40 1018.12 1017.87 1017.68 1017.57 1017.54 1017.60 1017.74 1017.94 1018.18 1018.44 1018.68
Thickness
5771 5758 5754 5765 5776 5779 5780 5782 5786 5806 5823 5808 5790 5785 5789 5791 5791 5791 5792 5790 5780 5767 5766 5763 5754 5741 5732 5721 5706 5694 5691 5690 5692 5693 5691 5687 5685 5685 5682 5678 5671 5664 5658 5654
5753 5751 5769 5779 5783 5782 5780 5775 5779 5795 5810 5797 5781 5778 5779 5778 5777 5778 5776 5772 5768 5759 5754 5750 5743 5733 5725 5713 5701 5692 5685 5681 5681 5679 5677 5674 5671 5669 5665 5660 5653 5647 5643 5641
5746 5763 5780 5775 5772 5773 5773 5768 5771 5778 5795 5793 5774 5764 5765 5767 5767 5765 5766 5763 5757 5748 5740 5736 5731 5725 5717 5706 5697 5689 5681 5676 5673 5670 5668 5663 5659 5654 5648 5642 5637 5631 5626 5626
5755 5771 5776 5775 5771 5772 5758 5773 5775 5775 5771 5771 5769 5746 5753 5751 5747 5748 5749 5747 5740 5733 5727 5722 5717 5711 5706 5699 5693 5685 5678 5671 5666 5662 5657 5650 5642 5635 5631 5626 5623 5620 5616 5611
5753 5767 5767 5764 5768 5770 5765 5780 5777 5776 5766 5761 5770 5755 5751 5743 5729 5729 5730 5729 5725 5720 5714 5707 5703 5698 5694 5690 5683 5676 5670 5662 5656 5651 5644 5637 5629 5624 5620 5616 5612 5608 5603 5596
5760 5776 5776 5773 5778 5774 5774 5771 5769 5767 5758 5737 5754 5753 5746 5735 5725 5720 5719 5718 5714 5709 5703 5697 5693 5688 5682 5677 5670 5663 5656 5650 5644 5638 5631 5624 5617 5612 5608 5603 5598 5593 5586 5580
5745 5760 5775 5780 5766 5768 5765 5747 5727 5721 5723 5732 5761 5755 5755 5745 5734 5726 5716 5711 5708 5703 5696 5689 5682 5675 5668 5662 5656 5650 5643 5637 5632 5625 5618 5611 5605 5599 5594 5588 5581 5574 5569 5563
5733 5737 5761 5770 5761 5757 5752 5743 5719 5710 5718 5735 5753 5735 5724 5741 5734 5726 5716 5710 5704 5699 5692 5682 5673 5665 5657 5650 5643 5637 5631 5625 5619 5612 5605 5599 5593 5586 5579 5570 5561 5554 5547 5541
5734 5745 5773 5773 5771 5760 5747 5741 5748 5733 5731 5726 5732 5710 5705 5723 5716 5711 5707 5702 5697 5691 5683 5673 5665 5655 5647 5638 5631 5625 5618 5612 5606 5599 5593 5586 5579 5570 5561 5551 5541 5531 5522 5516
5741 5731 5752 5764 5765 5760 5756 5752 5744 5728 5709 5707 5728 5724 5701 5703 5700 5699 5696 5692 5687 5681 5674 5664 5655 5646 5638 5630 5623 5615 5608 5600 5594 5588 5580 5573 5563 5554 5543 5534 5522 5512 5503 5498
5748 5728 5735 5749 5741 5741 5744 5738 5734 5733 5732 5713 5706 5716 5721 5708 5702 5693 5687 5684 5679 5672 5664 5655 5646 5638 5629 5621 5612 5603 5595 5587 5580 5573 5566 5557 5547 5537 5528 5520 5511 5502 5495 5490
5740 5732 5721 5734 5756 5759 5747 5741 5732 5711 5712 5720 5713 5693 5724 5713 5704 5691 5681 5676 5672 5664 5656 5647 5637 5628 5617 5607 5598 5590 5581 5574 5566 5558 5550 5541 5531 5524 5517 5511 5504 5498 5492 5487
5711 5704 5696 5705 5725 5742 5734 5738 5739 5731 5718 5708 5702 5692 5718 5705 5694 5684 5674 5667 5658 5651 5642 5632 5623 5614 5603 5593 5586 5577 5569 5561 5553 5545 5537 5528 5521 5515 5510 5505 5500 5494 5489 5484
5700 5688 5683 5683 5705 5727 5724 5726 5731 5725 5710 5705 5708 5690 5695 5687 5680 5672 5664 5655 5646 5636 5627 5620 5612 5601 5591 5583 5574 5565 5557 5549 5540 5533 5525 5518 5513 5509 5506 5502 5496 5491 5485 5480
5688 5675 5683 5693 5709 5720 5720 5708 5705 5704 5709 5708 5706 5682 5681 5675 5666 5660 5652 5643 5633 5625 5619 5611 5600 5589 5580 5571 5560 5551 5543 5535 5527 5520 5514 5510 5507 5505 5502 5497 5492 5486 5480 5475
5678 5665 5669 5675 5694 5704 5705 5700 5691 5691 5690 5692 5687 5665 5677 5668 5658 5649 5640 5633 5624 5617 5610 5599 5588 5578 5568 5556 5546 5536 5528 5521 5514 5508 5506 5505 5503 5500 5497 5493 5488 5481 5474 5468
5649 5652 5646 5650 5673 5681 5678 5690 5691 5694 5689 5680 5658 5651 5659 5651 5644 5636 5630 5623 5615 5606 5597 5586 5575 5565 5554 5543 5532 5523 5517 5511 5505 5502 5502 5502 5500 5496 5492 5487 5482 5475 5468 5462
5636 5633 5633 5637 5646 5637 5673 5693 5694 5686 5670 5671 5661 5650 5647 5639 5633 5627 5621 5612 5602 5593 5582 5571 5561 5552 5542 5531 5523 5515 5509 5506 5504 5503 5501 5499 5496 5491 5486 5482 5476 5469 5463 5455
5634 5627 5618 5615 5624 5644 5660 5672 5679 5664 5647 5658 5650 5641 5633 5628 5617 5607 5603 5597 5587 5576 5566 5556 5548 5541 5531 5523 5516 5510 5507 5506 5504 5501 5498 5495 5490 5486 5482 5477 5470 5464 5456 5449
5622 5622 5609 5602 5606 5621 5644 5656 5666 5651 5628 5645 5643 5633 5624 5616 5601 5590 5590 5583 5573 5562 5552 5544 5538 5532 5523 5516 5510 5507 5506 5505 5502 5499 5496 5492 5488 5483 5479 5473 5466 5458 5451 5444
5586 5599 5601 5596 5596 5602 5627 5638 5641 5614 5612 5630 5628 5620 5612 5602 5595 5583 5577 5568 5558 5548 5540 5534 5529 5522 5515 5510 5506 5504 5504 5503 5500 5497 5494 5491 5488 5482 5476 5469 5461 5454 5447 5439
5551 5570 5594 5601 5587 5574 5607 5616 5615 5614 5620 5619 5613 5603 5592 5585 5577 5571 5563 5555 5546 5538 5530 5525 5521 5516 5511 5508 5505 5503 5503 5502 5500 5497 5494 5491 5487 5481 5474 5465 5458 5451 5442 5433
5541 5555 5578 5589 5586 5591 5599 5605 5612 5614 5609 5605 5598 5590 5582 5573 5567 5561 5552 5544 5536 5529 5523 5519 5516 5512 5509 5507 5505 5504 5503 5502 5499 5497 5494 5490 5486 5479 5471 5463 5456 5447 5437 5427
5535 5550 5564 5569 5575 5585 5590 5592 5591 5592 5592 5591 5586 5580 5574 5565 5558 5550 5542 5534 5526 5520 5516 5514 5511 5509 5508 5508 5507 5506 5504 5501 5498 5496 5491 5488 5483 5474 5465 5460 5452 5441 5428 5415
5537 5548 5560 5565 5569 5576 5576 5577 5575 5576 5577 5576 5574 5571 5564 5556 5547 5539 5531 5524 5517 5513 5511 5508 5506 5506 5507 5509 5509 5507 5503 5500 5496 5493 5486 5482 5478 5467 5460 5452 5440 5427 5408 5397
5547 5551 5555 5556 5567 5569 5566 5567 5567 5564 5564 5563 5562 5558 5553 5544 5535 5529 5521 5514 5510 5507 5504 5503 5503 5505 5508 5510 5507 5505 5502 5498 5493 5489 5481 5476 5471 5461 5455 5447 5432 5414 5401 5389